Vertical_Velocity
-1 -2 -2 -2 -0 -1 -6 -6 -5 -4 -4 -2 3 2 -1 0 2 1 -3 2 -0 1 2 3 2 3 1 2 2 3 -2 -4 -13 5 -7 -5 -7 -6 -1 8 -3 -4 -0
-3 -1 0 -1 -5 -5 -1 -6 -6 -5 -1 -0 -1 -3 -2 1 -0 0 5 -2 -1 4 2 0 0 2 1 2 0 1 1 -2 -4 -1 0 -0 -2 2 -0 -1 2 1 -4
-4 -2 -1 -1 -5 1 -3 0 -6 -4 2 -3 -5 -1 1 -1 2 -0 -6 -7 -5 -4 -2 -1 -2 -1 -1 -0 1 2 4 2 -1 -5 -1 -1 3 4 3 -0 -0 2 -1
-2 -1 -1 -3 -3 -9 -2 -3 -2 0 -1 0 -1 -1 -2 -1 1 -4 2 1 3 3 0 -0 -1 -0 0 -2 1 1 -0 0 1 -5 -3 2 -3 1 -2 -1 -4 -0 3
-1 -0 -1 -2 -1 -1 -1 2 -2 -4 -2 -2 -2 -1 -1 -4 -1 -4 2 -1 -1 -1 0 0 1 1 -2 3 -0 2 2 0 -1 -5 -4 2 1 3 5 5 -1 -3 -1
-5 -3 -2 -4 1 0 2 -1 -5 -3 -0 -0 -1 -1 -1 1 -7 0 4 -1 1 0 -0 0 2 1 -0 -4 -1 3 4 1 -1 -6 -2 1 1 -0 3 -0 2 -1 -2
-5 -3 -4 -2 -0 0 1 -2 -1 -2 -2 -2 -2 -2 -1 3 -11 -0 -2 -0 -3 0 0 1 -1 2 2 2 0 -8 -2 0 1 -1 -2 2 0 -0 3 -1 2 2 3
8 3 -6 -2 3 2 3 -1 1 -1 -1 -2 1 0 -1 6 -10 -1 -1 -1 0 2 2 -1 -2 -3 5 -2 1 2 -0 0 -0 -2 -5 -0 2 1 -2 -1 3 2 2
10 -2 -5 -3 -1 -1 0 -1 -2 -2 -1 -1 3 -1 -1 3 0 -1 -1 -2 -1 0 -0 2 0 -0 2 2 -1 -1 1 1 -0 -2 -1 -2 -1 1 1 -2 -0 -1 0
7 1 -6 2 7 4 2 -3 -2 -1 -2 -3 4 -1 -0 -3 -0 -3 -0 -3 0 0 5 -0 1 -2 1 2 -0 -1 -3 2 -0 2 1 -1 -1 1 1 -2 4 -2 -0
7 -4 -4 5 14 5 -1 -4 -4 -1 -2 0 -2 -1 -2 -4 -0 -2 0 -1 -2 -2 -0 1 3 -1 0 1 1 1 0 1 2 1 0 0 1 1 1 0 0 -1 -1
2 3 -1 24 7 0 -2 -2 -0 -1 1 0 -3 -1 0 -0 -2 -2 1 1 1 -2 1 2 1 2 2 2 0 1 2 2 2 2 2 1 0 0 -0 0 0 1 3
3 2 7 -2 -2 -2 1 -2 -2 -1 -1 -1 -3 -3 -3 2 1 0 3 2 1 0 1 1 1 2 1 2 1 2 3 2 2 1 -0 1 2 2 1 0 0 -0 -1
-1 5 7 1 -3 3 -1 -2 -1 -0 -1 -2 -2 -1 0 1 -0 0 1 1 2 2 1 2 2 2 3 2 2 2 3 3 1 1 2 2 1 -0 -1 0 0 -0 -0
1 2 -0 -1 -3 1 3 -4 2 -3 0 -1 -2 -1 -2 1 1 -1 -3 -1 -0 1 1 1 2 2 3 3 5 3 1 1 1 1 2 2 0 2 -0 0 1 0 0
0 -0 -2 1 -1 -0 -0 3 -4 4 2 1 0 0 1 -0 -0 -1 -1 -0 1 1 2 1 1 2 2 2 1 -0 1 1 1 1 1 0 1 1 -1 2 2 1 -1
0 0 -0 -2 -1 -2 -1 -2 -2 -6 -6 -1 -1 -0 0 0 -0 -1 -2 -1 0 1 0 1 2 2 2 2 2 3 2 2 0 -0 0 1 0 1 1 2 -0 0 1
-0 -0 -1 -0 -1 -1 -1 -2 -0 -1 -1 -1 -8 -1 1 -1 -1 -1 -1 -1 -1 -0 0 1 1 1 2 1 1 1 2 3 1 1 0 1 1 0 1 1 -1 1 0
-1 -0 -1 -1 -0 -1 -1 -0 0 -2 -2 -0 -0 -2 -2 -0 -0 -1 -1 -1 -1 -0 0 1 0 1 1 -1 0 1 2 1 1 0 1 1 1 0 0 1 -0 -1 -1
-1 1 -0 -1 -0 -1 -1 -1 -2 -2 -1 -1 -0 -2 -1 -1 -1 -1 -1 -0 -0 -0 -0 1 1 -0 -2 0 1 1 2 0 1 0 1 1 1 1 0 0 0 -0 -1
-0 -1 -1 -0 -1 -1 -0 -1 -2 -2 -0 -1 -1 -0 -1 -2 -1 -2 -1 -1 -0 -0 0 0 0 -0 -2 0 0 1 1 1 0 1 1 2 1 0 0 0 0 0 0
-0 -1 -1 -1 -1 -0 -0 -2 -1 1 0 -1 -1 -2 2 -0 -2 -1 -1 -1 -1 -1 -0 1 1 1 0 -0 0 0 1 0 2 1 1 0 1 1 0 -0 0 -1 -0
-0 -0 -1 0 -0 -0 -1 -1 -1 -1 -1 -2 -0 0 -1 -1 -1 -1 -0 -1 -1 -1 -0 0 1 0 1 0 0 0 0 0 0 0 0 0 0 0 0 1 1 0 -1
0 -0 -1 -0 0 -0 -0 0 -1 -1 0 -1 -1 -1 -0 -0 -0 -0 -0 -0 -0 -0 -1 -1 0 1 0 0 0 0 0 0 0 0 0 0 0 0 -1 -0 0 -0 -0
-0 -0 0 -1 -0 -0 -0 -1 -1 -1 -1 -1 -1 -1 -0 -0 -0 -1 -1 -1 -1 0 -1 -1 -0 1 1 0 -1 -0 -0 0 0 0 1 1 1 0 0 1 0 -0 -1
0 -0 -0 -1 -0 0 -0 -1 -1 -1 -1 -1 -1 -1 -0 1 0 -0 -0 -1 -1 -0 -0 -1 -1 -0 0 0 0 0 -0 -0 -0 1 1 1 0 -0 0 0 0 -0 -1
Height
3077 3071 3064 3058 3052 3045 3039 3031 3024 3017 3012 3007 3000 2995 2990 2986 2983 2979 2975 2971 2969 2966 2963 2961 2958 2956 2953 2952 2950 2949 2947 2945 2945 2945 2946 2947 2947 2947 2948 2946 2946 2947 2948
3069 3062 3056 3049 3042 3035 3028 3021 3014 3009 3004 2999 2994 2989 2984 2979 2975 2971 2968 2964 2961 2958 2955 2952 2949 2948 2946 2944 2942 2940 2939 2939 2938 2935 2937 2937 2937 2937 2937 2936 2937 2938 2939
3061 3055 3048 3041 3033 3027 3020 3012 3005 3000 2995 2990 2985 2981 2976 2972 2968 2963 2959 2955 2952 2949 2946 2943 2941 2938 2936 2934 2932 2931 2929 2928 2927 2925 2923 2926 2926 2926 2926 2925 2926 2926 2928
3051 3045 3039 3031 3024 3017 3009 3002 2996 2992 2987 2982 2977 2973 2968 2964 2959 2954 2952 2948 2944 2941 2937 2933 2930 2928 2925 2923 2922 2921 2919 2918 2917 2915 2914 2913 2914 2915 2915 2915 2915 2916 2917
3044 3038 3030 3022 3014 3008 3002 2995 2989 2984 2979 2974 2969 2965 2960 2956 2950 2947 2943 2938 2934 2931 2927 2924 2920 2917 2914 2914 2911 2910 2908 2907 2906 2905 2904 2904 2905 2907 2907 2908 2906 2906 2905
3034 3028 3021 3013 3007 3000 2994 2987 2982 2977 2973 2968 2963 2958 2953 2948 2940 2938 2934 2929 2925 2921 2917 2914 2911 2907 2904 2902 2900 2898 2898 2896 2895 2894 2894 2892 2892 2894 2894 2894 2893 2893 2892
3028 3021 3014 3005 2999 2993 2987 2981 2976 2971 2965 2960 2955 2950 2944 2939 2932 2929 2925 2920 2915 2911 2907 2903 2900 2898 2895 2892 2890 2887 2886 2886 2884 2884 2881 2882 2881 2882 2882 2881 2882 2881 2880
3022 3014 3005 2998 2992 2986 2981 2976 2970 2965 2959 2954 2948 2942 2937 2933 2925 2921 2916 2910 2905 2901 2896 2892 2889 2887 2885 2882 2880 2878 2876 2875 2874 2873 2872 2872 2871 2871 2871 2871 2870 2868 2868
3015 3007 2999 2992 2986 2981 2975 2970 2964 2959 2954 2948 2942 2936 2930 2925 2918 2912 2906 2899 2894 2890 2885 2882 2879 2876 2874 2872 2869 2868 2867 2866 2865 2864 2862 2861 2861 2860 2860 2859 2858 2858 2858
3005 2998 2991 2986 2980 2974 2968 2964 2958 2954 2948 2941 2936 2930 2924 2917 2910 2902 2896 2890 2884 2880 2876 2873 2870 2867 2865 2863 2861 2859 2858 2857 2856 2855 2853 2850 2849 2848 2849 2849 2851 2850 2851
2996 2988 2983 2978 2972 2967 2962 2958 2954 2949 2941 2935 2930 2924 2917 2909 2901 2894 2888 2881 2876 2871 2867 2864 2862 2859 2857 2855 2854 2852 2850 2849 2848 2846 2845 2844 2843 2842 2842 2843 2843 2844 2844
2986 2980 2975 2971 2966 2960 2956 2953 2948 2941 2935 2929 2923 2917 2909 2902 2894 2886 2881 2875 2869 2864 2861 2858 2855 2853 2851 2849 2847 2845 2843 2842 2842 2842 2841 2841 2840 2840 2839 2839 2839 2838 2838
2975 2970 2966 2962 2958 2955 2952 2947 2940 2936 2930 2924 2917 2909 2902 2895 2888 2881 2875 2869 2864 2859 2856 2853 2850 2848 2846 2843 2841 2838 2838 2838 2838 2839 2839 2838 2837 2837 2836 2835 2834 2833 2832
2967 2963 2960 2956 2953 2951 2946 2941 2936 2932 2926 2920 2912 2904 2897 2890 2882 2875 2869 2865 2861 2856 2853 2850 2847 2845 2843 2839 2836 2835 2835 2835 2836 2836 2836 2836 2835 2835 2833 2832 2830 2829 2828
2961 2957 2954 2951 2948 2945 2941 2936 2933 2927 2923 2916 2908 2900 2892 2885 2878 2871 2866 2862 2858 2854 2851 2848 2846 2843 2841 2838 2835 2834 2834 2834 2834 2834 2835 2834 2834 2833 2831 2830 2828 2826 2826
2956 2953 2950 2947 2944 2941 2937 2933 2928 2925 2919 2913 2906 2898 2890 2882 2874 2869 2865 2862 2858 2854 2851 2848 2845 2843 2841 2839 2837 2835 2834 2833 2833 2833 2833 2833 2832 2832 2831 2830 2828 2826 2825
2952 2949 2946 2943 2940 2937 2934 2930 2925 2920 2914 2909 2903 2895 2888 2880 2873 2868 2865 2861 2858 2855 2852 2849 2846 2844 2842 2840 2838 2836 2834 2833 2832 2831 2831 2831 2831 2831 2830 2829 2829 2828 2827
2949 2946 2943 2940 2937 2934 2931 2926 2922 2918 2913 2907 2900 2894 2887 2879 2873 2868 2864 2861 2859 2855 2852 2850 2848 2845 2843 2841 2839 2837 2835 2833 2832 2830 2828 2828 2828 2829 2828 2828 2828 2827 2827
2945 2943 2940 2938 2935 2932 2928 2924 2920 2915 2911 2905 2899 2892 2885 2879 2873 2867 2864 2861 2858 2856 2853 2850 2848 2846 2843 2842 2840 2838 2836 2834 2832 2830 2828 2826 2826 2826 2826 2826 2826 2826 2825
2942 2940 2937 2934 2932 2928 2925 2921 2917 2913 2908 2903 2898 2892 2886 2879 2873 2868 2864 2861 2858 2855 2853 2850 2848 2846 2844 2843 2841 2839 2837 2835 2833 2831 2829 2827 2825 2825 2824 2824 2824 2823 2823
2939 2936 2934 2931 2928 2925 2922 2919 2915 2911 2906 2901 2896 2891 2886 2880 2874 2868 2864 2860 2857 2854 2852 2850 2848 2846 2845 2844 2842 2840 2838 2836 2833 2832 2830 2828 2826 2825 2824 2823 2822 2820 2820
2935 2932 2930 2928 2925 2922 2919 2916 2912 2908 2904 2899 2894 2889 2885 2880 2874 2869 2864 2860 2857 2854 2851 2849 2847 2846 2845 2843 2841 2840 2838 2836 2834 2832 2830 2829 2827 2826 2824 2822 2821 2820 2818
2931 2929 2926 2924 2922 2919 2916 2913 2909 2905 2901 2896 2892 2887 2882 2878 2874 2869 2865 2861 2857 2853 2851 2849 2847 2845 2844 2842 2841 2839 2837 2835 2834 2832 2830 2829 2827 2826 2824 2823 2821 2820 2818
2927 2925 2922 2920 2918 2915 2912 2910 2906 2903 2899 2894 2890 2885 2880 2876 2873 2869 2864 2860 2857 2854 2851 2848 2846 2845 2843 2841 2840 2838 2836 2835 2833 2831 2829 2828 2826 2825 2824 2822 2820 2819 2817
2923 2921 2918 2916 2914 2911 2909 2907 2903 2900 2896 2891 2887 2883 2878 2874 2871 2867 2863 2860 2856 2853 2850 2848 2846 2844 2842 2840 2838 2837 2835 2833 2832 2830 2828 2827 2825 2824 2822 2821 2819 2817 2816
2918 2916 2914 2912 2910 2908 2906 2903 2900 2897 2893 2889 2884 2880 2876 2872 2868 2865 2862 2858 2855 2852 2849 2847 2845 2843 2840 2839 2837 2835 2833 2832 2830 2828 2827 2825 2824 2822 2820 2819 2817 2816 2814